Вернуться в каталог

STARLINK-11338

АктивенСвязьVLEO
NORAD 61534·PAYLOAD·🇺🇸 United States

Запущен Oct 15, 2024 с Vandenberg Space Force Base

Loading…

Ближайшие Пролёты (ближайшие 24 часа)

TLE

СвежийSource: CelesTrak SupGP

Эпоха: Sep 15, 2026, 03:14 UTC

1 61534C 24184C   26258.13520833 -.00067072  00000+0 -55252-3 0  2589
2 61534  53.1574  22.3946 0001032  97.4773 186.0248 15.69741838    17

Отслеживайте STARLINK-11338 в реальном времени с AllMySat

Download on the App Store